Location: Gwatt
(46.7204°N, 7.6223°E)
Time: 08:47:54
(UTC+00:00)

Vanguard 2 - Pass Details

Date: 26 January 2021
Orbit: 552 x 2938 km, 32.9° (Epoch: 24 February)

Event Time Altitude Azimuth Distance (km) Brightness Sun altitude
Rises 17:17:19 0° 238° (WSW) 2,715 12.2 -9.3°
Reaches altitude 10° 17:20:19 10° 212° (SSW) 1,894 10.3 -9.8°
Maximum altitude 17:22:35 14° 178° (S) 1,741 9.5 -10.1°
Drops below altitude 10° 17:25:08 10° 146° (SE) 2,178 9.7 -10.5°
Enters shadow 17:28:48 - 123° (ESE) 3,363 10.4 -11.2°
Sets 17:29:04 0° 122° (ESE) 3,455 - -11.2°
